TimeCST,TemperatureF,Dew PointF,Humidity,Sea Level PressureIn,VisibilityMPH,Wind Direction,Wind SpeedMPH,Gust SpeedMPH,PrecipitationIn,Events,Conditions,WindDirDegrees,DateUTC
12:53 AM,35.1,21.9,59,30.33,10.0,NNE,12.7,26.5,N/A,,Overcast,30,2013-01-24 06:53:00
1:53 AM,33.1,19.0,56,30.34,10.0,NE,15.0,26.5,N/A,,Overcast,50,2013-01-24 07:53:00
2:53 AM,30.9,18.0,59,30.35,10.0,North,-9999.0,-,N/A,,Overcast,0,2013-01-24 08:53:00
3:53 AM,30.0,16.0,56,30.35,10.0,North,-9999.0,-,N/A,,Overcast,0,2013-01-24 09:53:00
4:53 AM,28.9,14.0,54,30.36,10.0,North,-9999.0,-,N/A,,Overcast,0,2013-01-24 10:53:00
5:53 AM,28.0,15.1,58,30.36,10.0,ENE,11.5,19.6,N/A,,Overcast,60,2013-01-24 11:53:00
6:53 AM,27.0,14.0,58,30.37,10.0,ENE,11.5,20.7,N/A,,Overcast,60,2013-01-24 12:53:00
7:53 AM,26.1,15.1,63,30.37,10.0,ENE,12.7,19.6,N/A,,Overcast,60,2013-01-24 13:53:00
8:53 AM,26.1,15.1,63,30.39,10.0,ENE,16.1,21.9,N/A,,Overcast,60,2013-01-24 14:53:00
9:53 AM,28.0,12.0,51,30.38,10.0,East,13.8,21.9,N/A,,Overcast,80,2013-01-24 15:53:00
10:53 AM,30.9,12.0,46,30.37,10.0,East,12.7,18.4,N/A,,Overcast,90,2013-01-24 16:53:00
11:53 AM,30.9,10.9,43,30.36,10.0,ENE,10.4,-,N/A,,Overcast,70,2013-01-24 17:53:00
12:00 PM,30.2,12.2,47,30.33,10.0,East,12.7,-,N/A,,Overcast,80,2013-01-24 18:00:00
12:53 PM,32.0,12.9,45,30.32,10.0,ENE,9.2,-,N/A,,Overcast,70,2013-01-24 18:53:00
1:40 PM,33.8,12.2,41,30.26,-9999.0,North,-9999.0,-,N/A,,Unknown,0,2013-01-24 19:40:00
1:53 PM,34.0,12.9,42,30.27,10.0,ESE,13.8,-,N/A,,Overcast,110,2013-01-24 19:53:00
2:00 PM,33.8,12.2,41,30.24,-9999.0,East,17.3,21.9,N/A,,Unknown,100,2013-01-24 20:00:00
2:31 PM,33.8,14.0,44,30.23,10.0,ESE,12.7,-,N/A,,Overcast,110,2013-01-24 20:31:00
2:53 PM,34.0,14.0,44,30.24,10.0,ESE,12.7,-,N/A,,Overcast,110,2013-01-24 20:53:00
3:53 PM,34.0,15.1,46,30.24,10.0,East,12.7,-,N/A,,Overcast,100,2013-01-24 21:53:00
4:53 PM,33.1,19.9,59,30.20,10.0,East,9.2,-,N/A,,Overcast,100,2013-01-24 22:53:00
5:53 PM,34.0,17.1,50,30.21,10.0,East,9.2,-,N/A,,Overcast,100,2013-01-24 23:53:00
6:53 PM,34.0,17.1,50,30.15,10.0,ESE,11.5,-,N/A,,Overcast,110,2013-01-25 00:53:00
7:53 PM,34.0,17.1,50,30.20,10.0,ESE,5.8,-,N/A,,Overcast,110,2013-01-25 01:53:00
8:53 PM,34.0,19.0,54,30.17,10.0,ESE,8.1,-,N/A,,Overcast,120,2013-01-25 02:53:00
9:53 PM,35.1,19.0,52,30.16,10.0,SE,5.8,-,N/A,,Overcast,130,2013-01-25 03:53:00
10:53 PM,35.1,19.0,52,30.16,10.0,North,-9999.0,-,N/A,,Overcast,0,2013-01-25 04:53:00
11:53 PM,34.0,18.0,52,30.17,10.0,SSE,9.2,-,N/A,,Overcast,150,2013-01-25 05:53:00